DLH878 EDDF-ENTC

Flight info

Callsign DLH878
Flight time N/A
Altitude 35000
Route MARUN8M/25C MARUN Y150 TOLGI DCT ALASA DCT MAVIP DCT PENNO DCT BARVI
Aircraft A321/M-SDE3FGHIRWY/LB1

Departure

Time 2026-05-06 08:42
Airport Frankfurt Main Airport (EDDF)

Arrival

Time N/A
Airport Tromsø Airport (ENTC)
Time Latitude Longitude Altitude Speed Heading
2026-05-06 08:31 50.04469 8.56250 362 ft 4 kts 176°
2026-05-06 08:31 50.04487 8.56262 361 ft 4 kts 246°
2026-05-06 08:31 50.04484 8.56249 358 ft 4 kts 249°
2026-05-06 08:32 50.04475 8.56209 358 ft 4 kts 250°
2026-05-06 08:32 50.04465 8.56170 363 ft 4 kts 250°
2026-05-06 08:32 50.04456 8.56131 364 ft 3 kts 250°
2026-05-06 08:32 50.04454 8.56124 363 ft 0 kts 250°
2026-05-06 08:35 50.04453 8.56118 363 ft 3 kts 250°
2026-05-06 08:35 50.04441 8.56068 363 ft 6 kts 249°
2026-05-06 08:36 50.04406 8.56021 362 ft 7 kts 186°
2026-05-06 08:36 50.04351 8.56050 360 ft 11 kts 159°
2026-05-06 08:36 50.04291 8.56120 359 ft 12 kts 109°
2026-05-06 08:36 50.04259 8.56229 362 ft 12 kts 153°
2026-05-06 08:37 50.04176 8.56277 358 ft 13 kts 159°
2026-05-06 08:37 50.04152 8.56391 354 ft 13 kts 68°
2026-05-06 08:37 50.04186 8.56522 360 ft 13 kts 70°
2026-05-06 08:37 50.04216 8.56654 359 ft 13 kts 70°
2026-05-06 08:38 50.04244 8.56773 363 ft 11 kts 70°
2026-05-06 08:38 50.04269 8.56881 362 ft 12 kts 70°
2026-05-06 08:38 50.04306 8.57027 361 ft 16 kts 68°
2026-05-06 08:38 50.04344 8.57184 364 ft 16 kts 69°
2026-05-06 08:39 50.04382 8.57344 363 ft 16 kts 70°
2026-05-06 08:39 50.04420 8.57505 364 ft 14 kts 70°
2026-05-06 08:39 50.04431 8.57603 367 ft 6 kts 105°
2026-05-06 08:39 50.04391 8.57656 365 ft 11 kts 159°
2026-05-06 08:40 50.04305 8.57699 364 ft 12 kts 172°
2026-05-06 08:40 50.04258 8.57636 367 ft 4 kts 251°
2026-05-06 08:40 50.04257 8.57634 367 ft 0 kts 251°
2026-05-06 08:41 50.04235 8.57536 365 ft 36 kts 250°
2026-05-06 08:41 50.04048 8.56758 361 ft 115 kts 250°
2026-05-06 08:42 50.03690 8.55261 380 ft 175 kts 249°
2026-05-06 08:42 50.03269 8.53455 1186 ft 178 kts 248°
2026-05-06 08:42 50.02848 8.51662 2026 ft 176 kts 249°
2026-05-06 08:42 50.02263 8.49965 2484 ft 183 kts 226°
2026-05-06 08:43 50.01123 8.49061 2944 ft 192 kts 195°
2026-05-06 08:43 49.99796 8.48577 3429 ft 198 kts 197°
2026-05-06 08:43 49.98453 8.48047 3994 ft 200 kts 197°
2026-05-06 08:43 49.97090 8.47489 4504 ft 204 kts 198°
2026-05-06 08:44 49.95717 8.46913 5056 ft 205 kts 198°
2026-05-06 08:44 49.94304 8.46289 5328 ft 221 kts 199°
2026-05-06 08:44 49.92769 8.45540 5576 ft 239 kts 204°
2026-05-06 08:44 49.91449 8.44057 6215 ft 237 kts 236°
2026-05-06 08:45 49.90913 8.41659 6824 ft 241 kts 268°
2026-05-06 08:45 49.91280 8.39093 7398 ft 251 kts 290°
2026-05-06 08:45 49.92201 8.36786 8092 ft 256 kts 308°
2026-05-06 08:45 49.93650 8.34975 8368 ft 281 kts 331°
2026-05-06 08:46 49.95481 8.33777 8924 ft 288 kts 334°
2026-05-06 08:46 49.97350 8.32586 9532 ft 293 kts 334°
2026-05-06 08:46 49.99240 8.31367 10044 ft 301 kts 334°
2026-05-06 08:46 50.01255 8.30058 10176 ft 323 kts 336°
2026-05-06 08:47 50.03460 8.29144 10300 ft 345 kts 349°
2026-05-06 08:47 50.05913 8.28978 10622 ft 359 kts
2026-05-06 08:47 50.08400 8.29665 11163 ft 365 kts 15°
2026-05-06 08:47 50.10829 8.30922 11725 ft 369 kts 17°
2026-05-06 08:48 50.13266 8.32203 12316 ft 372 kts 17°
2026-05-06 08:48 50.15728 8.33496 12875 ft 375 kts 17°
2026-05-06 08:48 50.18212 8.34796 13449 ft 378 kts 17°
2026-05-06 08:48 50.20711 8.36101 13971 ft 381 kts 17°
2026-05-06 08:49 50.23234 8.37419 14484 ft 384 kts 17°
2026-05-06 08:49 50.25774 8.38750 14988 ft 386 kts 17°
2026-05-06 08:49 50.28337 8.40097 15504 ft 389 kts 17°
2026-05-06 08:49 50.30912 8.41462 16009 ft 392 kts 18°
2026-05-06 08:50 50.33470 8.42847 16533 ft 395 kts 18°
2026-05-06 08:50 50.36079 8.44280 16991 ft 399 kts 18°
2026-05-06 08:50 50.38714 8.45731 17453 ft 403 kts 18°
2026-05-06 08:50 50.41369 8.47193 17944 ft 407 kts 18°
2026-05-06 08:51 50.44051 8.48666 18371 ft 410 kts 18°
2026-05-06 08:51 50.46753 8.50148 18793 ft 413 kts 18°
2026-05-06 08:51 50.49490 8.51598 19230 ft 415 kts 17°
2026-05-06 08:51 50.52257 8.52959 19671 ft 418 kts 15°
2026-05-06 08:52 50.55047 8.54267 20091 ft 420 kts 15°
2026-05-06 08:52 50.57865 8.55567 20521 ft 423 kts 15°
2026-05-06 08:52 50.60692 8.56879 20938 ft 425 kts 15°
2026-05-06 08:52 50.63532 8.58213 21348 ft 428 kts 15°
2026-05-06 08:53 50.66376 8.59566 21743 ft 430 kts 15°
2026-05-06 08:53 50.69264 8.60953 22146 ft 433 kts 15°
2026-05-06 08:53 50.72140 8.62343 22550 ft 435 kts 15°
2026-05-06 08:53 50.75035 8.63747 22944 ft 438 kts 15°
2026-05-06 08:54 50.77936 8.65276 23329 ft 441 kts 21°
2026-05-06 08:54 50.80683 8.67488 23665 ft 445 kts 32°
2026-05-06 08:54 50.83146 8.70365 23989 ft 447 kts 41°
2026-05-06 08:54 50.85342 8.73932 24323 ft 449 kts 52°
2026-05-06 08:55 50.87231 8.77836 24665 ft 451 kts 54°
2026-05-06 08:55 50.89128 8.81798 25006 ft 453 kts 53°
2026-05-06 08:55 50.91040 8.85788 25314 ft 455 kts 53°
2026-05-06 08:55 50.92954 8.89785 25641 ft 458 kts 53°
2026-05-06 08:56 50.94885 8.93827 25953 ft 460 kts 53°
2026-05-06 08:56 50.96818 8.97885 26271 ft 462 kts 54°
2026-05-06 08:56 50.98760 9.01972 26588 ft 465 kts 54°
2026-05-06 08:56 51.00708 9.06072 27005 ft 464 kts 54°
2026-05-06 08:57 51.02655 9.10176 27416 ft 465 kts 54°
2026-05-06 08:57 51.04596 9.14275 27744 ft 466 kts 54°
2026-05-06 08:57 51.06549 9.18403 28054 ft 468 kts 53°
2026-05-06 08:57 51.08702 9.22279 28348 ft 470 kts 44°
2026-05-06 08:58 51.11236 9.25616 28636 ft 472 kts 34°
2026-05-06 08:58 51.14068 9.28261 28909 ft 473 kts 24°
2026-05-06 08:58 51.17135 9.30154 29171 ft 474 kts 14°
2026-05-06 08:58 51.19259 9.30988 29339 ft 474 kts 10°
2026-05-06 08:59 51.22485 9.32090 29666 ft 473 kts 12°
2026-05-06 08:59 51.25689 9.33191 30053 ft 470 kts 12°
2026-05-06 08:59 51.28878 9.34294 30395 ft 468 kts 12°
2026-05-06 08:59 51.33093 9.35762 30749 ft 468 kts 12°
2026-05-06 09:00 51.35240 9.36515 30916 ft 468 kts 12°
2026-05-06 09:00 51.38428 9.37631 31143 ft 469 kts 12°
2026-05-06 09:00 51.41619 9.38743 31378 ft 469 kts 12°
2026-05-06 09:00 51.44811 9.39856 31621 ft 469 kts 12°
2026-05-06 09:01 51.47953 9.40952 31912 ft 468 kts 12°
2026-05-06 09:01 51.51137 9.42063 32166 ft 468 kts 12°
2026-05-06 09:01 51.54315 9.43175 32399 ft 468 kts 12°
2026-05-06 09:01 51.57497 9.44291 32621 ft 468 kts 12°
2026-05-06 09:02 51.60681 9.45414 32846 ft 469 kts 12°
2026-05-06 09:02 51.63876 9.46541 33063 ft 469 kts 12°
2026-05-06 09:02 51.67061 9.47665 33283 ft 469 kts 12°
2026-05-06 09:02 51.70242 9.48793 33504 ft 470 kts 12°
2026-05-06 09:03 51.73433 9.49928 33735 ft 470 kts 12°
2026-05-06 09:03 51.76628 9.51063 33925 ft 470 kts 12°
2026-05-06 09:03 51.79833 9.52201 34103 ft 471 kts 12°
2026-05-06 09:03 51.83038 9.53250 34277 ft 471 kts
2026-05-06 09:04 51.86298 9.53759 34434 ft 471 kts
2026-05-06 09:04 51.89564 9.54189 34596 ft 471 kts
2026-05-06 09:04 51.92835 9.54628 34746 ft 471 kts
2026-05-06 09:05 51.99358 9.55514 34791 ft 469 kts
2026-05-06 09:05 52.05831 9.56394 34791 ft 469 kts
2026-05-06 09:06 52.12321 9.57279 34802 ft 469 kts
2026-05-06 09:06 52.18846 9.58169 34814 ft 468 kts
2026-05-06 09:07 52.25328 9.59056 34827 ft 468 kts
2026-05-06 09:07 52.31847 9.59938 34840 ft 469 kts
2026-05-06 09:08 52.38313 9.60819 34851 ft 469 kts
2026-05-06 09:08 52.44816 9.61722 34847 ft 470 kts
2026-05-06 09:09 52.51351 9.62622 34855 ft 470 kts
2026-05-06 09:09 52.57867 9.63523 34854 ft 470 kts
2026-05-06 09:10 52.64389 9.64436 34846 ft 470 kts
2026-05-06 09:10 52.70917 9.65351 34845 ft 471 kts
2026-05-06 09:11 52.77448 9.66262 34843 ft 471 kts
2026-05-06 09:11 52.83984 9.67175 34845 ft 471 kts
2026-05-06 09:12 52.90528 9.68100 34845 ft 472 kts
2026-05-06 09:12 52.97074 9.69027 34847 ft 472 kts
2026-05-06 09:13 53.03576 9.69956 34842 ft 472 kts
2026-05-06 09:13 53.10164 9.70890 34853 ft 473 kts
2026-05-06 09:14 53.16732 9.71808 34860 ft 473 kts
2026-05-06 09:14 53.23259 9.72735 34862 ft 473 kts
2026-05-06 09:15 53.29823 9.73682 34863 ft 473 kts
2026-05-06 09:15 53.36385 9.74625 34873 ft 473 kts
2026-05-06 09:16 53.42929 9.75569 34867 ft 474 kts
2026-05-06 09:16 53.49524 9.76535 34877 ft 474 kts
2026-05-06 09:17 53.56095 9.77488 34882 ft 474 kts
2026-05-06 09:17 53.62678 9.78447 34877 ft 475 kts
2026-05-06 09:18 53.69262 9.79404 34879 ft 475 kts
2026-05-06 09:18 53.75859 9.80358 34880 ft 476 kts
2026-05-06 09:19 53.82401 9.81319 34874 ft 476 kts
2026-05-06 09:19 53.88999 9.82313 34885 ft 477 kts
2026-05-06 09:20 53.95620 9.83294 34892 ft 477 kts